{"data":{"norad_id":58826,"intl_designator":"2024-017A","name":"STARLINK-31233","alt_names":[],"object_type":"PAYLOAD","status":"ACTIVE","operator":null,"country":"US","launch_date":"2024-01-24","launch_site_code":"AFWTR","launch_vehicle":null,"mission":null,"orbit_class":"UNKNOWN","rcs_meters":null,"size_class":null,"mass_kg":null,"dimensions":null,"purposes":["comms"],"wikipedia_slug":null,"has_3d_model":false,"image_url":null,"decayed_at":null,"tle_current":{"epoch":"2026-09-20T14:32:44.707200Z","epoch_age_seconds":143478,"freshness":"FRESH","line1":"1 58826U 24017A   26263.60607300  .00000253  00000+0  18622-4 0  9996","line2":"2 58826  53.1621  17.1985 0001078  85.7488 274.3638 15.34390750150046","mean_motion":15.3439075,"eccentricity":0.0001078,"inclination_deg":53.1621,"raan_deg":17.1985,"arg_perigee_deg":85.7488,"mean_anomaly_deg":274.3638,"bstar":1.8622e-5,"rev_number":15004,"period_min":93.848323837979,"perigee_km":461.99328775292,"apogee_km":463.46817883622,"semimajor_km":6840.8677332946,"source":"CELESTRAK","updated_at":"2026-09-21T09:00:33.982691Z"}}}